Lapse_Rate
4.5 3.3 3.1 2.8 2.4 2.5 3.2 2.9 3.2 4.1 3.9 4.3 3.7 3.7 4.9 5.7 5.5 5.8 6.5 5.7 5.6 5.2 5.2 4.8 5.4 4.1 3.7 3.5 3.8 4.1 3.8 4.1
4.4 3.8 2.8 2.6 3.1 2.9 2.1 1.9 1.9 2.9 3.2 3.4 3.3 3.9 4.0 4.2 5.3 6.3 5.7 5.7 5.7 5.3 4.8 5.1 5.3 4.1 4.5 4.6 4.3 4.3 5.2 4.3
5.2 4.1 2.4 1.9 2.8 2.7 2.7 3.1 3.3 3.5 3.2 3.3 3.3 2.9 3.6 4.0 5.0 5.8 6.4 6.2 5.8 6.2 4.6 3.7 4.1 4.0 3.9 4.2 4.3 4.9 4.7 4.8
5.2 4.9 3.1 2.7 2.8 3.7 4.2 4.1 4.0 3.6 3.4 3.2 3.0 3.2 3.4 3.4 3.5 3.8 4.1 4.1 5.1 5.2 4.7 4.5 4.2 4.0 4.3 4.4 4.6 5.0 5.1 4.8
5.7 4.6 4.1 4.3 3.9 4.1 5.1 5.5 5.2 4.8 4.4 4.1 4.4 4.3 4.8 4.8 4.7 3.9 4.0 4.4 4.7 5.2 5.2 4.9 4.3 4.9 4.4 4.4 5.5 4.7 4.7 4.3
4.6 4.4 4.5 4.8 4.8 4.8 5.1 5.5 5.8 5.7 5.2 4.8 4.3 5.0 4.7 4.8 4.0 3.8 3.7 4.6 5.6 5.8 6.4 6.0 5.3 5.2 4.8 4.3 4.4 4.8 4.8 5.2
4.8 4.6 4.8 4.8 4.7 5.0 5.0 5.3 5.4 5.1 5.9 5.0 3.9 4.2 4.6 3.8 3.3 3.2 3.7 4.3 4.9 6.7 7.1 6.9 6.1 4.9 4.5 4.8 4.9 4.5 4.7 5.5
4.7 5.0 6.0 5.6 5.3 4.7 5.3 5.0 5.7 4.8 4.5 4.2 4.4 4.2 4.0 3.8 3.7 4.0 4.7 4.7 5.6 5.3 6.3 5.5 5.4 5.5 5.3 5.3 5.3 5.3 5.6 5.7
4.7 5.3 4.8 4.5 4.3 4.4 4.6 5.2 5.8 5.2 5.0 4.4 3.9 4.3 4.2 4.5 5.1 5.1 5.2 5.2 5.3 6.2 6.1 6.2 7.1 6.7 6.7 6.6 6.0 6.0 5.6 5.2
5.5 4.5 4.2 4.5 4.6 4.7 4.7 5.6 5.9 5.4 4.4 4.6 5.1 5.5 5.4 5.5 5.7 4.4 4.3 5.0 6.8 6.1 6.1 6.6 7.2 7.2 6.9 6.4 5.8 5.4 5.6 5.6
4.5 4.3 4.3 4.6 4.6 4.6 5.1 5.9 5.6 5.1 4.9 5.1 5.2 5.3 5.8 5.4 4.0 4.3 4.8 5.1 5.2 5.5 6.3 6.7 6.7 6.8 6.6 6.1 6.0 6.3 5.9 5.4
4.8 5.0 5.0 4.9 5.0 5.4 5.3 5.4 5.1 5.0 5.0 5.2 5.0 5.4 5.7 4.2 4.3 4.2 4.6 4.6 5.1 6.6 6.9 6.6 6.6 6.1 6.1 6.1 6.0 6.3 6.3 6.4
4.9 5.2 5.3 5.4 5.3 5.5 5.8 5.3 5.4 5.2 5.7 5.7 5.5 5.5 5.8 4.6 4.4 4.5 4.7 5.0 6.0 6.3 6.8 6.6 6.4 6.5 6.4 6.2 6.0 5.5 5.5 5.5
4.8 4.8 5.0 5.1 5.6 5.8 5.5 5.4 5.4 5.7 5.9 5.4 5.6 5.5 5.5 4.8 4.6 4.7 5.5 5.6 6.1 6.4 6.7 6.4 6.4 6.6 6.7 6.2 5.9 5.6 5.5 5.7
5.1 4.6 5.0 5.7 5.9 5.6 5.8 5.7 5.6 5.7 5.6 5.7 6.3 5.7 6.7 5.6 5.6 5.8 6.9 6.2 6.6 6.7 6.8 6.8 6.7 6.9 6.2 5.8 5.6 4.7 4.5 5.3
5.9 5.9 5.6 5.7 5.9 5.6 5.6 5.7 5.4 5.2 5.8 5.9 5.7 6.1 6.2 6.0 6.3 5.4 6.4 6.5 6.9 7.0 7.0 6.7 6.6 6.9 6.0 4.2 4.1 3.9 4.2 4.9
6.7 6.7 6.8 6.6 6.3 6.0 6.0 5.5 5.7 6.8 6.6 6.8 6.7 5.8 6.1 6.4 5.7 7.5 6.9 7.3 6.9 6.8 6.7 6.8 6.0 6.7 5.0 5.3 4.9 4.3 5.2 5.6
6.3 6.2 6.3 6.0 5.5 5.9 5.4 5.8 6.1 6.1 6.6 6.0 6.2 5.8 6.2 6.4 6.6 6.6 7.1 8.0 6.6 6.5 6.1 5.7 5.6 4.7 6.0 6.6 6.7 5.6 5.5 5.5
6.1 5.7 5.4 5.4 5.4 5.2 5.6 6.1 6.2 6.3 6.1 5.9 5.9 6.2 6.4 5.6 5.7 6.5 7.1 7.2 7.2 6.2 5.5 4.9 4.8 6.3 7.0 7.7 7.8 5.9 5.6 6.0
Wind_Speed
11 12 14 15 15 13 11 9 6 3 3 6 7 6 7 9 9 9 9 9 10 10 9 9 12 5 5 4 4 5 4 6
16 15 12 13 11 14 11 12 9 7 5 3 3 2 1 2 8 11 15 16 17 13 8 8 10 5 5 5 4 5 7 5
14 13 12 10 9 9 10 9 9 8 4 3 4 3 3 5 11 16 18 18 19 14 11 6 9 4 6 5 4 5 2 4
13 13 10 9 9 8 8 8 8 7 7 4 4 5 4 4 5 6 14 17 17 17 17 12 8 6 4 4 5 5 3 3
12 10 9 8 7 8 8 5 6 6 7 5 4 2 2 2 3 4 9 18 18 18 17 15 12 8 6 5 4 2 3 2
10 9 8 7 6 5 5 7 5 2 5 4 3 3 2 3 4 7 7 11 17 18 18 15 11 8 5 6 6 8 6 4
9 8 8 6 5 4 5 6 7 8 6 8 8 7 5 5 5 4 3 3 5 12 11 9 8 7 5 5 4 5 4 3
7 9 7 6 5 5 5 7 6 7 7 7 7 7 7 6 4 3 4 3 3 5 10 7 5 7 7 5 4 4 4 4
7 7 6 7 8 7 6 5 4 6 6 7 6 6 4 3 2 1 2 3 3 8 9 5 6 6 6 6 2 4 5 5
7 8 8 7 6 6 6 5 5 7 7 5 5 4 3 2 2 5 4 3 3 6 7 3 1 2 4 6 4 5 4 3
8 7 8 7 6 5 4 4 6 5 5 5 3 4 2 4 6 4 3 2 4 5 6 6 4 4 6 5 5 5 5 4
7 7 6 6 6 5 6 4 5 5 5 3 3 2 2 6 5 5 3 2 3 5 6 5 5 6 6 5 6 7 6 5
7 7 7 6 6 6 6 3 5 4 1 3 4 4 2 5 5 5 3 0 3 4 3 5 5 5 5 5 5 4 5 5
7 8 6 6 6 6 4 3 1 1 3 3 3 6 4 5 5 4 3 3 3 3 1 4 5 5 5 5 5 5 5 4
7 7 7 7 6 6 5 6 4 5 5 4 4 5 7 3 4 3 3 3 3 3 2 2 4 5 5 5 5 6 6 7
8 7 7 6 6 6 6 6 7 6 4 5 6 6 2 6 6 6 6 4 2 2 1 2 4 3 3 4 4 4 5 5
5 6 7 6 6 5 6 7 7 4 7 10 11 5 6 6 6 5 6 4 1 2 3 3 4 3 6 3 1 3 5 5
6 7 7 7 6 5 6 5 5 6 9 7 8 6 5 5 4 5 8 1 1 3 4 5 4 3 3 2 5 4 4 5
7 7 7 7 5 6 5 5 5 6 6 8 9 10 6 5 4 5 3 3 4 2 5 5 5 4 9 12 7 3 5 6
Wind_Direction
67 65 66 65 80 82 82 102 101 106 57 59 44 42 33 54 83 89 79 93 66 44 14 359 355 354 343 341 338 327 312 302
64 61 58 64 66 73 62 56 42 43 38 66 51 54 342 1 72 37 58 41 30 22 13 3 359 359 325 323 323 340 328 323
68 57 50 49 62 69 66 62 52 39 32 19 48 12 3 43 34 48 46 37 36 30 25 13 12 3 352 340 329 315 281 318
86 72 58 52 51 60 71 78 70 60 55 38 20 23 25 13 17 30 33 35 28 24 20 14 4 3 334 310 305 323 317 17
99 94 79 69 52 49 49 86 106 88 81 74 77 99 30 359 33 33 28 23 16 15 8 4 351 335 329 329 50 78 63 31
104 109 114 107 92 79 40 34 44 91 114 114 101 52 43 44 43 42 24 9 13 11 352 353 11 32 28 26 25 39 34 29
130 131 127 135 143 130 85 66 41 47 39 55 74 67 57 53 45 39 11 7 6 353 12 6 31 41 32 31 24 48 51 24
105 121 146 156 132 81 89 69 49 69 76 81 76 79 78 83 61 40 9 346 344 356 1 18 43 44 43 48 40 19 340 317
128 126 111 109 108 100 97 88 72 87 76 76 78 73 89 89 96 186 354 32 2 10 5 83 41 38 4 353 321 293 292 292
119 76 75 56 63 62 76 56 60 74 87 83 69 64 108 160 215 46 79 31 348 346 352 345 359 298 289 295 289 291 305 299
67 66 66 54 51 53 40 47 94 100 92 72 68 32 356 21 86 77 77 346 336 331 328 296 307 296 295 297 295 291 300 285
72 67 58 41 21 12 6 52 74 60 65 55 31 324 316 139 138 160 175 236 311 310 290 310 301 295 286 276 278 275 275 295
72 57 48 22 7 10 349 55 39 79 31 316 303 282 256 180 174 184 172 263 273 285 316 327 325 321 314 307 317 44 44 1
51 31 14 8 353 339 20 352 184 270 304 291 312 302 273 218 206 182 186 240 275 280 341 340 331 326 330 13 45 14 1 341
42 16 346 332 317 333 327 324 313 278 269 274 285 287 268 216 208 196 247 215 271 291 3 330 324 319 64 42 27 6 352 341
16 341 319 320 340 343 343 332 311 300 322 296 283 284 183 186 234 248 233 226 229 223 309 343 325 57 67 63 39 354 320 317
342 324 329 327 335 339 321 339 353 17 317 311 298 325 331 301 303 337 311 261 123 322 323 308 39 96 115 86 68 299 297 300
333 317 311 300 298 314 12 6 345 340 354 35 13 345 316 337 335 311 283 307 354 321 316 70 67 123 165 306 273 263 287 291
291 285 283 299 3 27 4 348 354 359 7 19 15 6 330 326 335 309 240 352 316 346 62 50 38 355 329 315 310 314 308 297